Flag for Niger Weather past 2 weeks in Niamey, Niger

Now
88 °F

Clear.


Feels Like: 91 °F
Forecast: 90 / 111 °F
Wind: 10 mph from Southwest

Location: Niamey-Aero

Current Time: May 25, 2015 at 3:01:22 AM

Latest Report: May 25, 2015 at 2:00 AM


Visibility: 10 mi

Pressure: 29.86 "Hg

Humidity: 52%

Dew point: 68 °F

Location of NiameyLocation

Historic Weather in Niamey — Graph

°F

Niamey temperature yesterday

Maximum temperature yesterday: 104 °F (at 4:00 PM)
Minimum temperature yesterday: 82 °F (at 4:00 AM)
Average temperature yesterday: 92 °F

Past Weeks' High & Low Weather Summary

 TemperatureHumidityPressure
High111 °F (May 18, 3:00 PM)58% (May 24, 4:00 AM)29.95 "Hg (May 24, 4:00 AM)
Low82 °F (May 24, 4:00 AM)4% (May 13, 6:00 PM)29.68 "Hg (May 18, 6:00 PM)
Average96 °F24%29.82 "Hg
* Reported May 10 2:00 AM — May 25 2:00 AM, Niamey, Weather by CustomWeather, © 2015

Note: Actual official high and low records may vary slightly from our data, if they occured in-between our weather recording intervals... More about our weather records

Advertising

Niamey weather history for previous 24 hours

 ConditionsComfort  
Time TempWeatherWind HumidityBarometerVisibility
2:00 AM
Mon, May 25
88 °FClear.10 mph52%29.86 "Hg10 mi
1:00 AM88 °FClear.8 mph49%29.86 "Hg10 mi
12:00 AM90 °FClear.9 mph46%29.86 "Hg10 mi
11:00 PM
Sun, May 24
91 °FClear.13 mph41%29.86 "Hg10 mi
9:00 PM95 °FClear.9 mph34%29.83 "Hg5 mi
8:00 PM97 °FClear.7 mph30%29.80 "Hg5 mi
7:00 PM99 °FClear.9 mph29%29.80 "Hg5 mi
6:00 PM102 °FPassing clouds.10 mph24%29.77 "HgN/A
5:00 PM104 °FPassing clouds.10 mph21%29.77 "HgN/A
4:00 PM104 °FPassing clouds.10 mph20%29.77 "HgN/A
3:00 PM102 °FPassing clouds.12 mph21%29.80 "HgN/A
2:00 PM100 °FPassing clouds.10 mph22%29.83 "HgN/A
1:00 PM97 °FPassing clouds.10 mph28%29.86 "HgN/A
12:00 PM91 °FPassing clouds.12 mph38%29.89 "HgN/A
11:00 AM88 °FSunny.13 mph46%29.89 "Hg10 mi
10:00 AM86 °FSunny.16 mph52%29.89 "Hg10 mi
9:00 AM86 °FSunny.15 mph49%29.89 "Hg10 mi
8:00 AM84 °FClear.8 mph51%29.86 "Hg4 mi
7:00 AM86 °FClear.7 mph43%29.83 "Hg4 mi
6:00 AM84 °FClear.9 mph43%29.80 "Hg4 mi
5:00 AM84 °FPassing clouds.15 mph48%29.83 "Hg4 mi
4:00 AM82 °FPassing clouds.14 mph58%29.89 "Hg4 mi
3:00 AM84 °FPassing clouds.15 mph51%29.89 "Hg4 mi
Weather by CustomWeather, © 2015

See weather overviewHow to use our weather pages